Regional Weather Roundup
Issued by NWS

Home | Current Version | Previous Version | Graphics & Text | Print | Product List | Glossary Off
Versions: 1 2 3 4 5 6 7 8 9 10 11 12 13 14 15 16 17 18 19 20 21 22 23 24 25 26 27 28 29 30 31 32 33 34 35 36 37 38 39 40 41 42 43 44 45 46 47 48 49 50

000
ASUS43 KTOP 230159
RWRKS

WEATHER ROUNDUP FOR KANSAS
NATIONAL WEATHER SERVICE GOODLAND KS
800 PM CST SAT NOV 22 2014

NOTE:  "FAIR" INDICATES FEW OR NO CLOUDS BELOW 12,000 FEET WITH NO
SIGNIFICANT WEATHER AND/OR OBSTRUCTIONS TO VISIBILITY.

KSZ001>006-013>018-027>032-041>047-230300-
NORTHWEST KANSAS

CITY           SKY/WX    TMP DP  RH WIND       PRES   REMARKS
GOODLAND       MOCLDY    48  24  39 S12       29.54S
HAYS           CLOUDY    55  48  76 S21G26    29.58F
HILL CITY      PTCLDY    53  44  71 S14G23    29.55F
RUSSELL        CLOUDY    57  53  86 S23G30    29.57F
$$

KSZ061>065-074>080-084>089-230300-
SOUTHWEST KANSAS

CITY           SKY/WX    TMP DP  RH WIND       PRES   REMARKS
DODGE CITY     CLOUDY    55  49  80 S28G36    29.60F
ELKHART          N/A    N/A N/A N/A MISG        N/A
GARDEN CITY    CLEAR     51  47  86 S18G28    29.55F
GREAT BEND     CLOUDY    57  50  77 S25G33    29.61F
LIBERAL        CLOUDY    54  45  71 S22G29    29.62R
$$

KSZ066>073-081>083-090>101-230300-
SOUTHEAST KANSAS

CITY           SKY/WX    TMP DP  RH WIND       PRES   REMARKS
CHANUTE        CLOUDY    55  52  89 S17       29.77F
COFFEYVILLE    CLOUDY    55  52  89 S14       29.79F
HUTCHINSON     CLOUDY    57  53  86 S17       29.67F
MEDICINE LODGE   N/A     55  52  89 S16       29.68S
NEWTON         CLOUDY    55  48  76 S21       29.71F
PARSONS        CLOUDY    56  53  90 S10       29.80F
WICHITA INTL   CLOUDY    56  52  86 S17       29.71S
WICHITA JABRA  CLOUDY    55  52  89 S17G24    29.71F
WINFIELD       MOCLDY    53  51  93 S12       29.73F
$$

KSZ007>012-019>026-033>040-048>060-102>105-230300-
NORTHEAST KANSAS

CITY           SKY/WX    TMP DP  RH WIND       PRES   REMARKS
CONCORDIA      CLOUDY    57  54  89 S13G23    29.62R
EMPORIA        CLOUDY    53  52  96 S17G24    29.72S
LAWRENCE       CLOUDY    56  50  80 S14       29.73F
MANHATTAN      CLOUDY    57  52  83 S18G26    29.66F
OLATHE IND     CLOUDY    55  51  86 S15       29.75F
OLATHE EXE     CLOUDY    55  51  86 S16G23    29.74F
SALINA         CLOUDY    59  53  80 S17G28    29.63F
TOPEKA BILLARD CLOUDY    57  52  83 S17G25    29.71F
TOPEKA FORBES  CLOUDY    56  51  84 S17G29    29.70F
$$



USA.gov is the U.S. government's official web portal to all federal, state and local government web resources and services.